Time,TemperatureF,DewpointF,PressureIn,WindDirection,WindDirectionDegrees,WindSpeedMPH,WindSpeedGustMPH,Humidity,HourlyPrecipIn,Conditions,Clouds,dailyrainin,SoftwareType,DateUTC
2013-02-22 00:00:00,19.3,15.8,30.50,East,80,2.0,2.0,86,0.00,,,0.00,Wunderground v.1.15,2013-02-22 05:00:00,
2013-02-22 00:05:00,19.3,15.8,30.50,East,86,1.0,9.0,86,0.00,,,0.00,Wunderground v.1.15,2013-02-22 05:05:00,
2013-02-22 00:10:00,19.3,15.8,30.50,East,92,1.0,1.0,86,0.00,,,0.00,Wunderground v.1.15,2013-02-22 05:10:00,
2013-02-22 00:15:00,19.3,15.8,30.50,East,91,0.0,9.0,86,0.00,,,0.00,Wunderground v.1.15,2013-02-22 05:15:00,
2013-02-22 00:20:00,19.3,15.8,30.50,East,92,0.0,9.0,86,0.00,,,0.00,Wunderground v.1.15,2013-02-22 05:20:00,
2013-02-22 00:25:00,19.3,15.8,30.50,East,91,0.0,9.0,86,0.00,,,0.00,Wunderground v.1.15,2013-02-22 05:25:00,
2013-02-22 00:30:00,19.3,15.8,30.50,East,91,0.0,9.0,86,0.00,,,0.00,Wunderground v.1.15,2013-02-22 05:30:00,
2013-02-22 00:35:00,19.3,15.8,30.50,East,92,0.0,9.0,86,0.00,,,0.00,Wunderground v.1.15,2013-02-22 05:35:00,
2013-02-22 00:40:00,19.3,15.8,30.49,East,91,0.0,9.0,86,0.00,,,0.00,Wunderground v.1.15,2013-02-22 05:40:00,
2013-02-22 00:45:00,19.3,15.8,30.49,East,92,0.0,9.0,86,0.00,,,0.00,Wunderground v.1.15,2013-02-22 05:45:00,
2013-02-22 00:50:00,19.3,15.8,30.49,East,91,0.0,9.0,86,0.00,,,0.00,Wunderground v.1.15,2013-02-22 05:50:00,
2013-02-22 00:55:00,19.2,15.7,30.48,East,91,0.0,9.0,86,0.00,,,0.00,Wunderground v.1.15,2013-02-22 05:55:00,
2013-02-22 01:00:00,19.2,15.7,30.48,East,92,0.0,9.0,86,0.00,,,0.00,Wunderground v.1.15,2013-02-22 06:00:00,
2013-02-22 01:05:00,19.2,16.0,30.48,WSW,245,0.0,9.0,87,0.00,,,0.00,Wunderground v.1.15,2013-02-22 06:05:00,
2013-02-22 01:10:00,19.2,16.0,30.48,SSW,210,0.0,9.0,87,0.00,,,0.00,Wunderground v.1.15,2013-02-22 06:10:00,
2013-02-22 01:15:00,19.2,16.0,30.49,SW,228,0.0,9.0,87,0.00,,,0.00,Wunderground v.1.15,2013-02-22 06:15:00,
2013-02-22 01:25:00,19.1,15.9,30.49,SW,222,1.0,9.0,87,0.00,,,0.00,Wunderground v.1.15,2013-02-22 06:25:00,
2013-02-22 01:30:00,19.2,16.0,30.48,ESE,110,1.0,9.0,87,0.00,,,0.00,Wunderground v.1.15,2013-02-22 06:30:00,
2013-02-22 01:35:00,19.2,16.0,30.49,SW,219,1.0,9.0,87,0.00,,,0.00,Wunderground v.1.15,2013-02-22 06:35:00,
2013-02-22 01:40:00,19.2,16.0,30.49,WSW,238,0.0,9.0,87,0.00,,,0.00,Wunderground v.1.15,2013-02-22 06:40:00,
2013-02-22 01:45:00,19.3,16.1,30.50,WSW,239,1.0,9.0,87,0.00,,,0.00,Wunderground v.1.15,2013-02-22 06:45:00,
2013-02-22 01:50:00,19.3,16.1,30.50,WSW,240,1.0,1.0,87,0.00,,,0.00,Wunderground v.1.15,2013-02-22 06:50:00,
2013-02-22 01:55:00,19.4,16.2,30.50,SW,224,1.0,9.0,87,0.00,,,0.00,Wunderground v.1.15,2013-02-22 06:55:00,
2013-02-22 02:05:00,19.4,16.2,30.50,SSW,207,1.0,9.0,87,0.00,,,0.00,Wunderground v.1.15,2013-02-22 07:05:00,
2013-02-22 02:10:00,19.3,16.1,30.50,SSW,208,0.0,9.0,87,0.00,,,0.00,Wunderground v.1.15,2013-02-22 07:10:00,
2013-02-22 02:15:00,19.4,15.9,30.49,East,96,0.0,9.0,86,0.00,,,0.00,Wunderground v.1.15,2013-02-22 07:15:00,
2013-02-22 02:20:00,19.4,16.2,30.49,East,96,0.0,9.0,87,0.00,,,0.00,Wunderground v.1.15,2013-02-22 07:20:00,
2013-02-22 02:25:00,19.4,15.9,30.49,East,96,0.0,9.0,86,0.00,,,0.00,Wunderground v.1.15,2013-02-22 07:25:00,
2013-02-22 02:30:00,19.5,16.3,30.49,East,96,0.0,9.0,87,0.00,,,0.00,Wunderground v.1.15,2013-02-22 07:30:00,
2013-02-22 02:35:00,19.6,16.1,30.49,East,96,0.0,9.0,86,0.00,,,0.00,Wunderground v.1.15,2013-02-22 07:35:00,
2013-02-22 02:40:00,19.6,16.1,30.49,East,96,0.0,9.0,86,0.00,,,0.00,Wunderground v.1.15,2013-02-22 07:40:00,
2013-02-22 02:45:00,19.5,16.0,30.49,SW,235,0.0,9.0,86,0.00,,,0.00,Wunderground v.1.15,2013-02-22 07:45:00,
2013-02-22 02:50:00,19.5,16.3,30.50,SW,235,0.0,9.0,87,0.00,,,0.00,Wunderground v.1.15,2013-02-22 07:50:00,
2013-02-22 02:55:00,19.5,16.3,30.50,SW,235,0.0,9.0,87,0.00,,,0.00,Wunderground v.1.15,2013-02-22 07:55:00,
2013-02-22 03:00:00,19.6,16.4,30.50,SSW,198,0.0,9.0,87,0.00,,,0.00,Wunderground v.1.15,2013-02-22 08:00:00,
2013-02-22 03:05:00,19.6,16.4,30.50,SW,223,1.0,9.0,87,0.00,,,0.00,Wunderground v.1.15,2013-02-22 08:05:00,
2013-02-22 03:10:00,19.6,16.4,30.50,SW,218,1.0,1.0,87,0.00,,,0.00,Wunderground v.1.15,2013-02-22 08:10:00,
2013-02-22 03:15:00,19.6,16.4,30.50,SW,224,1.0,9.0,87,0.00,,,0.00,Wunderground v.1.15,2013-02-22 08:15:00,
2013-02-22 03:20:00,19.6,16.1,30.50,SSW,208,1.0,1.0,86,0.00,,,0.00,Wunderground v.1.15,2013-02-22 08:20:00,
2013-02-22 03:25:00,19.6,16.1,30.50,SW,229,1.0,9.0,86,0.00,,,0.00,Wunderground v.1.15,2013-02-22 08:25:00,
2013-02-22 03:30:00,19.7,16.2,30.50,SSE,159,1.0,9.0,86,0.00,,,0.00,Wunderground v.1.15,2013-02-22 08:30:00,
2013-02-22 03:35:00,19.7,16.2,30.50,SW,222,1.0,9.0,86,0.00,,,0.00,Wunderground v.1.15,2013-02-22 08:35:00,
2013-02-22 03:40:00,19.5,16.0,30.50,SW,217,1.0,1.0,86,0.00,,,0.00,Wunderground v.1.15,2013-02-22 08:40:00,
2013-02-22 03:45:00,19.4,15.9,30.49,SSW,208,1.0,9.0,86,0.00,,,0.00,Wunderground v.1.15,2013-02-22 08:45:00,
2013-02-22 03:50:00,19.2,15.7,30.50,SW,232,1.0,1.0,86,0.00,,,0.00,Wunderground v.1.15,2013-02-22 08:50:00,
2013-02-22 03:55:00,19.0,15.8,30.50,West,273,1.0,9.0,87,0.00,,,0.00,Wunderground v.1.15,2013-02-22 08:55:00,
2013-02-22 04:00:00,18.8,15.6,30.49,SSW,203,1.0,9.0,87,0.00,,,0.00,Wunderground v.1.15,2013-02-22 09:00:00,
2013-02-22 04:05:00,18.6,15.4,30.50,SW,217,1.0,9.0,87,0.00,,,0.00,Wunderground v.1.15,2013-02-22 09:05:00,
2013-02-22 04:10:00,18.5,15.3,30.50,SW,219,1.0,1.0,87,0.00,,,0.00,Wunderground v.1.15,2013-02-22 09:10:00,
2013-02-22 04:15:00,18.2,15.0,30.50,SE,129,1.0,9.0,87,0.00,,,0.00,Wunderground v.1.15,2013-02-22 09:15:00,
2013-02-22 04:20:00,17.8,14.6,30.49,East,84,0.0,9.0,87,0.00,,,0.00,Wunderground v.1.15,2013-02-22 09:20:00,
2013-02-22 04:25:00,17.1,13.9,30.49,East,95,1.0,9.0,87,0.00,,,0.00,Wunderground v.1.15,2013-02-22 09:25:00,
2013-02-22 04:30:00,16.9,13.7,30.49,East,94,1.0,1.0,87,0.00,,,0.00,Wunderground v.1.15,2013-02-22 09:30:00,
2013-02-22 04:35:00,16.8,13.9,30.49,East,95,0.0,9.0,88,0.00,,,0.00,Wunderground v.1.15,2013-02-22 09:35:00,
2013-02-22 04:40:00,16.7,13.8,30.48,East,93,0.0,9.0,88,0.00,,,0.00,Wunderground v.1.15,2013-02-22 09:40:00,
2013-02-22 04:45:00,16.4,13.5,30.47,ENE,68,1.0,9.0,88,0.00,,,0.00,Wunderground v.1.15,2013-02-22 09:45:00,
2013-02-22 04:50:00,16.1,13.2,30.47,ENE,70,1.0,1.0,88,0.00,,,0.00,Wunderground v.1.15,2013-02-22 09:50:00,
2013-02-22 04:55:00,16.2,13.5,30.46,ENE,70,0.0,9.0,89,0.00,,,0.00,Wunderground v.1.15,2013-02-22 09:55:00,
2013-02-22 05:00:00,16.2,13.5,30.46,NE,49,0.0,9.0,89,0.00,,,0.00,Wunderground v.1.15,2013-02-22 10:00:00,
2013-02-22 05:05:00,15.9,13.0,30.46,NE,53,0.0,9.0,88,0.00,,,0.00,Wunderground v.1.15,2013-02-22 10:05:00,
2013-02-22 05:10:00,15.6,12.7,30.47,NE,54,0.0,9.0,88,0.00,,,0.00,Wunderground v.1.15,2013-02-22 10:10:00,
2013-02-22 05:15:00,15.4,12.5,30.47,NE,53,0.0,9.0,88,0.00,,,0.00,Wunderground v.1.15,2013-02-22 10:15:00,
2013-02-22 05:20:00,15.1,12.2,30.47,NE,53,0.0,9.0,88,0.00,,,0.00,Wunderground v.1.15,2013-02-22 10:20:00,
2013-02-22 05:25:00,15.0,12.1,30.47,ENE,58,0.0,9.0,88,0.00,,,0.00,Wunderground v.1.15,2013-02-22 10:25:00,
2013-02-22 05:30:00,14.7,11.8,30.47,ENE,58,0.0,9.0,88,0.00,,,0.00,Wunderground v.1.15,2013-02-22 10:30:00,
2013-02-22 05:35:00,14.4,11.5,30.48,ENE,58,0.0,9.0,88,0.00,,,0.00,Wunderground v.1.15,2013-02-22 10:35:00,
2013-02-22 05:40:00,14.2,11.3,30.48,ENE,58,0.0,9.0,88,0.00,,,0.00,Wunderground v.1.15,2013-02-22 10:40:00,
2013-02-22 05:45:00,14.1,11.5,30.49,ENE,58,0.0,9.0,89,0.00,,,0.00,Wunderground v.1.15,2013-02-22 10:45:00,
2013-02-22 05:50:00,14.0,11.4,30.49,ENE,58,0.0,9.0,89,0.00,,,0.00,Wunderground v.1.15,2013-02-22 10:50:00,
2013-02-22 05:55:00,13.8,11.2,30.49,ENE,58,0.0,9.0,89,0.00,,,0.00,Wunderground v.1.15,2013-02-22 10:55:00,
2013-02-22 06:00:00,13.7,11.1,30.49,ENE,58,0.0,9.0,89,0.00,,,0.00,Wunderground v.1.15,2013-02-22 11:00:00,
2013-02-22 06:05:00,13.6,11.0,30.48,ENE,58,0.0,9.0,89,0.00,,,0.00,Wunderground v.1.15,2013-02-22 11:05:00,
2013-02-22 06:10:00,13.7,11.3,30.49,ENE,58,0.0,9.0,90,0.00,,,0.00,Wunderground v.1.15,2013-02-22 11:10:00,
2013-02-22 06:15:00,13.7,11.3,30.49,ENE,58,0.0,9.0,90,0.00,,,0.00,Wunderground v.1.15,2013-02-22 11:15:00,
2013-02-22 06:20:00,13.6,11.2,30.50,ENE,58,0.0,9.0,90,0.00,,,0.00,Wunderground v.1.15,2013-02-22 11:20:00,
2013-02-22 06:25:00,13.4,10.8,30.50,East,98,1.0,9.0,89,0.00,,,0.00,Wunderground v.1.15,2013-02-22 11:25:00,
2013-02-22 06:30:00,13.3,10.7,30.50,East,99,1.0,1.0,89,0.00,,,0.00,Wunderground v.1.15,2013-02-22 11:30:00,
2013-02-22 06:35:00,13.4,10.8,30.50,East,98,0.0,9.0,89,0.00,,,0.00,Wunderground v.1.15,2013-02-22 11:35:00,
2013-02-22 06:40:00,13.7,11.3,30.50,East,99,0.0,9.0,90,0.00,,,0.00,Wunderground v.1.15,2013-02-22 11:40:00,
2013-02-22 06:45:00,13.9,11.3,30.51,East,99,0.0,9.0,89,0.00,,,0.00,Wunderground v.1.15,2013-02-22 11:45:00,
2013-02-22 06:50:00,14.0,11.4,30.50,East,99,0.0,9.0,89,0.00,,,0.00,Wunderground v.1.15,2013-02-22 11:50:00,
2013-02-22 06:55:00,14.1,11.5,30.50,East,98,0.0,9.0,89,0.00,,,0.00,Wunderground v.1.15,2013-02-22 11:55:00,
2013-02-22 07:00:00,14.2,11.6,30.51,East,99,0.0,9.0,89,0.00,,,0.00,Wunderground v.1.15,2013-02-22 12:00:00,
2013-02-22 07:05:00,14.3,11.7,30.51,SW,232,0.0,9.0,89,0.00,,,0.00,Wunderground v.1.15,2013-02-22 12:05:00,
2013-02-22 07:10:00,14.4,11.8,30.51,SW,232,0.0,9.0,89,0.00,,,0.00,Wunderground v.1.15,2013-02-22 12:10:00,
2013-02-22 07:15:00,14.5,11.9,30.50,SW,232,0.0,9.0,89,0.00,,,0.00,Wunderground v.1.15,2013-02-22 12:15:00,
2013-02-22 07:20:00,14.7,12.0,30.50,SW,232,0.0,9.0,89,0.00,,,0.00,Wunderground v.1.15,2013-02-22 12:20:00,
2013-02-22 07:25:00,14.9,12.2,30.50,SW,232,0.0,9.0,89,0.00,,,0.00,Wunderground v.1.15,2013-02-22 12:25:00,
2013-02-22 07:30:00,15.1,12.4,30.50,SW,233,0.0,9.0,89,0.00,,,0.00,Wunderground v.1.15,2013-02-22 12:30:00,
2013-02-22 07:35:00,15.4,12.7,30.50,SW,232,0.0,9.0,89,0.00,,,0.00,Wunderground v.1.15,2013-02-22 12:35:00,
2013-02-22 07:40:00,15.6,12.9,30.50,SW,233,0.0,9.0,89,0.00,,,0.00,Wunderground v.1.15,2013-02-22 12:40:00,
2013-02-22 07:45:00,15.9,13.2,30.50,SW,232,0.0,9.0,89,0.00,,,0.00,Wunderground v.1.15,2013-02-22 12:45:00,
2013-02-22 07:50:00,16.0,13.1,30.49,SW,232,0.0,9.0,88,0.00,,,0.00,Wunderground v.1.15,2013-02-22 12:50:00,
2013-02-22 07:55:00,16.1,13.2,30.49,SW,232,0.0,9.0,88,0.00,,,0.00,Wunderground v.1.15,2013-02-22 12:55:00,
2013-02-22 08:00:00,16.4,13.5,30.49,SW,232,0.0,9.0,88,0.00,,,0.00,Wunderground v.1.15,2013-02-22 13:00:00,
2013-02-22 08:05:00,16.7,13.8,30.49,SW,232,0.0,9.0,88,0.00,,,0.00,Wunderground v.1.15,2013-02-22 13:05:00,
2013-02-22 08:10:00,17.0,14.1,30.48,SW,232,0.0,9.0,88,0.00,,,0.00,Wunderground v.1.15,2013-02-22 13:10:00,
2013-02-22 08:15:00,17.0,13.8,30.48,SW,232,0.0,9.0,87,0.00,,,0.00,Wunderground v.1.15,2013-02-22 13:15:00,
2013-02-22 08:20:00,17.1,13.9,30.48,SW,232,0.0,9.0,87,0.00,,,0.00,Wunderground v.1.15,2013-02-22 13:20:00,
2013-02-22 08:25:00,17.3,14.1,30.47,SW,232,0.0,9.0,87,0.00,,,0.00,Wunderground v.1.15,2013-02-22 13:25:00,
2013-02-22 08:30:00,17.6,14.4,30.47,SW,232,0.0,9.0,87,0.00,,,0.00,Wunderground v.1.15,2013-02-22 13:30:00,
2013-02-22 08:35:00,17.9,14.7,30.47,SW,232,0.0,9.0,87,0.00,,,0.00,Wunderground v.1.15,2013-02-22 13:35:00,
2013-02-22 08:40:00,18.0,14.5,30.46,SW,232,0.0,9.0,86,0.00,,,0.00,Wunderground v.1.15,2013-02-22 13:40:00,
2013-02-22 08:45:00,18.3,14.8,30.46,SW,232,0.0,9.0,86,0.00,,,0.00,Wunderground v.1.15,2013-02-22 13:45:00,
2013-02-22 08:50:00,18.6,15.1,30.46,SW,232,0.0,9.0,86,0.00,,,0.00,Wunderground v.1.15,2013-02-22 13:50:00,
2013-02-22 08:55:00,19.0,15.5,30.46,SW,232,0.0,9.0,86,0.00,,,0.00,Wunderground v.1.15,2013-02-22 13:55:00,
2013-02-22 09:00:00,19.5,16.0,30.46,SSW,198,0.0,9.0,86,0.00,,,0.00,Wunderground v.1.15,2013-02-22 14:00:00,
2013-02-22 09:05:00,20.1,16.6,30.46,SSW,210,1.0,9.0,86,0.00,,,0.00,Wunderground v.1.15,2013-02-22 14:05:00,
2013-02-22 09:10:00,20.6,17.1,30.45,South,187,1.0,1.0,86,0.00,,,0.00,Wunderground v.1.15,2013-02-22 14:10:00,
2013-02-22 09:15:00,21.2,17.4,30.45,SSW,207,1.0,9.0,85,0.00,,,0.00,Wunderground v.1.15,2013-02-22 14:15:00,
2013-02-22 09:20:00,21.6,17.5,30.45,SW,228,1.0,9.0,84,0.00,,,0.00,Wunderground v.1.15,2013-02-22 14:20:00,
2013-02-22 09:25:00,21.9,17.8,30.44,West,264,1.0,9.0,84,0.00,,,0.00,Wunderground v.1.15,2013-02-22 14:25:00,
2013-02-22 09:30:00,22.1,18.0,30.44,SW,228,1.0,9.0,84,0.00,,,0.00,Wunderground v.1.15,2013-02-22 14:30:00,
2013-02-22 09:35:00,22.4,18.0,30.44,SW,223,1.0,9.0,83,0.00,,,0.00,Wunderground v.1.15,2013-02-22 14:35:00,
2013-02-22 09:40:00,22.8,18.4,30.44,West,262,1.0,1.0,83,0.00,,,0.00,Wunderground v.1.15,2013-02-22 14:40:00,
2013-02-22 09:45:00,23.1,18.4,30.45,SW,233,0.0,9.0,82,0.00,,,0.00,Wunderground v.1.15,2013-02-22 14:45:00,
2013-02-22 09:50:00,23.5,18.8,30.45,SSW,212,0.0,9.0,82,0.00,,,0.00,Wunderground v.1.15,2013-02-22 14:50:00,
2013-02-22 09:55:00,23.9,18.9,30.45,WSW,245,0.0,9.0,81,0.00,,,0.00,Wunderground v.1.15,2013-02-22 14:55:00,
2013-02-22 10:00:00,24.2,18.9,30.46,SW,224,1.0,9.0,80,0.00,,,0.00,Wunderground v.1.15,2013-02-22 15:00:00,
2013-02-22 10:05:00,24.4,19.1,30.46,SW,217,2.0,9.0,80,0.00,,,0.00,Wunderground v.1.15,2013-02-22 15:05:00,
2013-02-22 10:10:00,24.6,19.3,30.45,SSW,195,2.0,9.0,80,0.00,,,0.00,Wunderground v.1.15,2013-02-22 15:10:00,
2013-02-22 10:15:00,25.0,19.4,30.44,SW,214,1.0,9.0,79,0.00,,,0.00,Wunderground v.1.15,2013-02-22 15:15:00,
2013-02-22 10:20:00,25.3,19.4,30.43,SSW,206,2.0,9.0,78,0.00,,,0.00,Wunderground v.1.15,2013-02-22 15:20:00,
2013-02-22 10:25:00,25.5,19.6,30.43,East,101,2.0,9.0,78,0.00,,,0.00,Wunderground v.1.15,2013-02-22 15:25:00,
2013-02-22 10:30:00,26.0,19.8,30.43,SW,231,2.0,9.0,77,0.00,,,0.00,Wunderground v.1.15,2013-02-22 15:30:00,
2013-02-22 10:35:00,26.5,20.3,30.43,SW,226,1.0,9.0,77,0.00,,,0.00,Wunderground v.1.15,2013-02-22 15:35:00,
2013-02-22 10:40:00,27.4,21.1,30.43,SE,129,1.0,1.0,77,0.00,,,0.00,Wunderground v.1.15,2013-02-22 15:40:00,
2013-02-22 10:45:00,27.6,20.4,30.42,SSE,155,1.0,2.0,74,0.00,,,0.00,Wunderground v.1.15,2013-02-22 15:45:00,
2013-02-22 10:50:00,27.7,20.5,30.42,SSW,210,2.0,9.0,74,0.00,,,0.00,Wunderground v.1.15,2013-02-22 15:50:00,
2013-02-22 10:55:00,28.2,21.0,30.42,WSW,256,2.0,9.0,74,0.00,,,0.00,Wunderground v.1.15,2013-02-22 15:55:00,
2013-02-22 11:00:00,28.4,21.2,30.41,WSW,242,2.0,9.0,74,0.00,,,0.00,Wunderground v.1.15,2013-02-22 16:00:00,
2013-02-22 11:05:00,28.9,21.3,30.41,South,189,1.0,9.0,73,0.00,,,0.00,Wunderground v.1.15,2013-02-22 16:05:00,
2013-02-22 11:10:00,29.4,21.8,30.40,SSW,210,1.0,9.0,73,0.00,,,0.00,Wunderground v.1.15,2013-02-22 16:10:00,
2013-02-22 11:15:00,29.9,21.3,30.40,SSW,210,1.0,9.0,70,0.00,,,0.00,Wunderground v.1.15,2013-02-22 16:15:00,
2013-02-22 11:20:00,29.8,21.2,30.39,SSW,212,2.0,9.0,70,0.00,,,0.00,Wunderground v.1.15,2013-02-22 16:20:00,
2013-02-22 11:25:00,30.2,21.2,30.39,SW,232,2.0,9.0,69,0.00,,,0.00,Wunderground v.1.15,2013-02-22 16:25:00,
2013-02-22 11:30:00,30.2,21.6,30.38,SW,224,2.0,9.0,70,0.00,,,0.00,Wunderground v.1.15,2013-02-22 16:30:00,
2013-02-22 11:35:00,30.5,21.9,30.37,WSW,240,2.0,9.0,70,0.00,,,0.00,Wunderground v.1.15,2013-02-22 16:35:00,
2013-02-22 11:40:00,30.5,21.5,30.38,West,264,3.0,3.0,69,0.00,,,0.00,Wunderground v.1.15,2013-02-22 16:40:00,
2013-02-22 11:45:00,30.5,21.2,30.37,SW,214,4.0,4.0,68,0.00,,,0.00,Wunderground v.1.15,2013-02-22 16:45:00,
2013-02-22 11:50:00,30.6,21.3,30.37,South,173,4.0,9.0,68,0.00,,,0.00,Wunderground v.1.15,2013-02-22 16:50:00,
2013-02-22 11:55:00,30.8,21.5,30.37,WSW,239,4.0,9.0,68,0.00,,,0.00,Wunderground v.1.15,2013-02-22 16:55:00,
2013-02-22 12:00:00,31.3,21.6,30.36,West,266,3.0,3.0,67,0.00,,,0.00,Wunderground v.1.15,2013-02-22 17:00:00,
2013-02-22 12:05:00,31.9,22.2,30.36,South,170,3.0,5.0,67,0.00,,,0.00,Wunderground v.1.15,2013-02-22 17:05:00,
2013-02-22 12:10:00,32.3,21.8,30.35,WSW,242,2.0,9.0,65,0.00,,,0.00,Wunderground v.1.15,2013-02-22 17:10:00,
2013-02-22 12:15:00,32.3,21.5,30.35,South,189,3.0,9.0,64,0.00,,,0.00,Wunderground v.1.15,2013-02-22 17:15:00,
2013-02-22 12:25:00,32.7,21.5,30.34,South,176,4.0,9.0,63,0.00,,,0.00,Wunderground v.1.15,2013-02-22 17:25:00,
2013-02-22 12:30:00,33.1,22.2,30.34,SSW,211,3.0,9.0,64,0.00,,,0.00,Wunderground v.1.15,2013-02-22 17:30:00,
2013-02-22 12:40:00,33.4,21.4,30.33,SSE,160,3.0,9.0,61,0.00,,,0.00,Wunderground v.1.15,2013-02-22 17:40:00,
2013-02-22 12:45:00,33.1,21.5,30.33,SSW,193,5.0,9.0,62,0.00,,,0.00,Wunderground v.1.15,2013-02-22 17:45:00,
2013-02-22 12:50:00,33.2,21.6,30.32,SSW,206,5.0,5.0,62,0.00,,,0.00,Wunderground v.1.15,2013-02-22 17:50:00,
2013-02-22 12:55:00,33.7,22.1,30.32,SSE,166,3.0,9.0,62,0.00,,,0.00,Wunderground v.1.15,2013-02-22 17:55:00,
2013-02-22 13:00:00,33.7,21.3,30.32,East,90,3.0,9.0,60,0.00,,,0.00,Wunderground v.1.15,2013-02-22 18:00:00,
2013-02-22 13:05:00,33.4,21.4,30.32,SSW,209,5.0,9.0,61,0.00,,,0.00,Wunderground v.1.15,2013-02-22 18:05:00,
2013-02-22 13:10:00,33.3,21.3,30.31,SSE,165,4.0,4.0,61,0.00,,,0.00,Wunderground v.1.15,2013-02-22 18:10:00,
2013-02-22 13:15:00,33.5,21.9,30.31,SE,124,2.0,9.0,62,0.00,,,0.00,Wunderground v.1.15,2013-02-22 18:15:00,
2013-02-22 13:20:00,33.4,21.4,30.30,SSW,194,3.0,3.0,61,0.00,,,0.00,Wunderground v.1.15,2013-02-22 18:20:00,
2013-02-22 13:25:00,33.6,21.2,30.30,SSE,167,3.0,9.0,60,0.00,,,0.00,Wunderground v.1.15,2013-02-22 18:25:00,
2013-02-22 13:30:00,33.7,21.3,30.30,SW,225,2.0,9.0,60,0.00,,,0.00,Wunderground v.1.15,2013-02-22 18:30:00,
2013-02-22 13:35:00,33.9,21.1,30.30,SW,219,3.0,9.0,59,0.00,,,0.00,Wunderground v.1.15,2013-02-22 18:35:00,
2013-02-22 13:40:00,33.7,21.3,30.30,SW,222,4.0,9.0,60,0.00,,,0.00,Wunderground v.1.15,2013-02-22 18:40:00,
2013-02-22 13:45:00,34.0,21.6,30.29,WSW,252,4.0,9.0,60,0.00,,,0.00,Wunderground v.1.15,2013-02-22 18:45:00,
2013-02-22 13:50:00,34.5,22.0,30.30,ESE,115,4.0,9.0,60,0.00,,,0.00,Wunderground v.1.15,2013-02-22 18:50:00,
2013-02-22 13:55:00,34.8,21.5,30.29,South,187,4.0,10.0,58,0.00,,,0.00,Wunderground v.1.15,2013-02-22 18:55:00,
2013-02-22 14:00:00,34.7,21.8,30.28,SW,228,4.0,9.0,59,0.00,,,0.01,Wunderground v.1.15,2013-02-22 19:00:00,
2013-02-22 14:05:00,34.7,21.4,30.28,SW,228,5.0,9.0,58,0.00,,,0.01,Wunderground v.1.15,2013-02-22 19:05:00,
2013-02-22 14:10:00,34.8,21.9,30.29,SW,228,5.0,5.0,59,0.00,,,0.01,Wunderground v.1.15,2013-02-22 19:10:00,
2013-02-22 14:15:00,34.9,21.6,30.29,SSE,167,5.0,9.0,58,0.00,,,0.01,Wunderground v.1.15,2013-02-22 19:15:00,
2013-02-22 14:20:00,34.9,21.6,30.29,SSE,148,5.0,5.0,58,0.00,,,0.01,Wunderground v.1.15,2013-02-22 19:20:00,
2013-02-22 14:30:00,35.1,21.8,30.29,South,169,3.0,9.0,58,0.00,,,0.01,Wunderground v.1.15,2013-02-22 19:30:00,
2013-02-22 14:35:00,35.1,21.8,30.29,West,277,3.0,9.0,58,0.00,,,0.01,Wunderground v.1.15,2013-02-22 19:35:00,
2013-02-22 14:40:00,35.1,22.2,30.29,South,172,3.0,9.0,59,0.00,,,0.01,Wunderground v.1.15,2013-02-22 19:40:00,
2013-02-22 14:45:00,34.9,22.0,30.29,SW,224,3.0,9.0,59,0.00,,,0.01,Wunderground v.1.15,2013-02-22 19:45:00,
2013-02-22 14:50:00,34.9,22.0,30.28,South,179,3.0,3.0,59,0.00,,,0.01,Wunderground v.1.15,2013-02-22 19:50:00,
2013-02-22 14:55:00,34.9,22.0,30.28,SE,136,2.0,9.0,59,0.00,,,0.01,Wunderground v.1.15,2013-02-22 19:55:00,
2013-02-22 15:00:00,34.9,22.4,30.28,SE,136,2.0,9.0,60,0.00,,,0.01,Wunderground v.1.15,2013-02-22 20:00:00,
2013-02-22 15:05:00,34.9,22.0,30.28,WSW,250,2.0,9.0,59,0.00,,,0.01,Wunderground v.1.15,2013-02-22 20:05:00,
2013-02-22 15:10:00,34.9,22.4,30.28,SSW,210,2.0,2.0,60,0.00,,,0.01,Wunderground v.1.15,2013-02-22 20:10:00,
2013-02-22 15:15:00,35.0,22.1,30.28,SSE,162,3.0,3.0,59,0.00,,,0.01,Wunderground v.1.15,2013-02-22 20:15:00,
2013-02-22 15:20:00,35.1,22.6,30.27,SW,229,3.0,9.0,60,0.00,,,0.01,Wunderground v.1.15,2013-02-22 20:20:00,
2013-02-22 15:25:00,35.2,22.3,30.27,ESE,110,4.0,9.0,59,0.00,,,0.01,Wunderground v.1.15,2013-02-22 20:25:00,
2013-02-22 15:30:00,35.3,22.4,30.27,SW,215,3.0,9.0,59,0.00,,,0.01,Wunderground v.1.15,2013-02-22 20:30:00,
2013-02-22 15:35:00,35.3,22.4,30.27,SE,144,3.0,9.0,59,0.00,,,0.01,Wunderground v.1.15,2013-02-22 20:35:00,
2013-02-22 15:40:00,35.4,22.5,30.27,West,267,2.0,9.0,59,0.00,,,0.01,Wunderground v.1.15,2013-02-22 20:40:00,
2013-02-22 15:45:00,35.4,22.5,30.26,South,184,2.0,9.0,59,0.00,,,0.01,Wunderground v.1.15,2013-02-22 20:45:00,
2013-02-22 15:50:00,35.4,22.5,30.27,SW,214,4.0,4.0,59,0.00,,,0.01,Wunderground v.1.15,2013-02-22 20:50:00,
2013-02-22 15:55:00,35.4,22.5,30.26,SSE,165,4.0,5.0,59,0.00,,,0.01,Wunderground v.1.15,2013-02-22 20:55:00,
2013-02-22 16:00:00,35.5,23.0,30.26,ESE,114,3.0,9.0,60,0.00,,,0.01,Wunderground v.1.15,2013-02-22 21:00:00,
2013-02-22 16:05:00,35.5,23.0,30.26,SSE,168,3.0,9.0,60,0.00,,,0.01,Wunderground v.1.15,2013-02-22 21:05:00,
2013-02-22 16:10:00,35.5,23.4,30.26,SSW,195,3.0,9.0,61,0.00,,,0.01,Wunderground v.1.15,2013-02-22 21:10:00,
2013-02-22 16:15:00,35.3,24.0,30.25,SSE,167,2.0,9.0,63,0.00,,,0.01,Wunderground v.1.15,2013-02-22 21:15:00,
2013-02-22 16:20:00,35.3,23.6,30.25,SE,146,2.0,2.0,62,0.00,,,0.01,Wunderground v.1.15,2013-02-22 21:20:00,
2013-02-22 16:25:00,35.4,23.7,30.24,SSW,208,2.0,3.0,62,0.00,,,0.01,Wunderground v.1.15,2013-02-22 21:25:00,
2013-02-22 16:30:00,35.5,23.0,30.25,SSE,162,3.0,3.0,60,0.00,,,0.01,Wunderground v.1.15,2013-02-22 21:30:00,
2013-02-22 16:35:00,35.6,23.1,30.25,SW,225,3.0,5.0,60,0.00,,,0.01,Wunderground v.1.15,2013-02-22 21:35:00,
2013-02-22 16:40:00,35.6,23.1,30.25,SW,214,3.0,9.0,60,0.00,,,0.01,Wunderground v.1.15,2013-02-22 21:40:00,
2013-02-22 16:45:00,35.7,23.2,30.25,SSE,150,4.0,9.0,60,0.00,,,0.01,Wunderground v.1.15,2013-02-22 21:45:00,
2013-02-22 16:50:00,35.7,23.2,30.25,SSW,203,4.0,4.0,60,0.00,,,0.01,Wunderground v.1.15,2013-02-22 21:50:00,
2013-02-22 16:55:00,35.6,23.1,30.25,SSW,198,3.0,9.0,60,0.00,,,0.01,Wunderground v.1.15,2013-02-22 21:55:00,
2013-02-22 17:00:00,35.6,22.7,30.25,SSW,192,4.0,9.0,59,0.00,,,0.01,Wunderground v.1.15,2013-02-22 22:00:00,
2013-02-22 17:05:00,35.6,23.1,30.25,SSE,148,3.0,9.0,60,0.00,,,0.01,Wunderground v.1.15,2013-02-22 22:05:00,
2013-02-22 17:10:00,35.4,23.7,30.24,ENE,72,3.0,3.0,62,0.00,,,0.01,Wunderground v.1.15,2013-02-22 22:10:00,
2013-02-22 17:15:00,35.2,23.5,30.24,SSE,160,5.0,5.0,62,0.00,,,0.01,Wunderground v.1.15,2013-02-22 22:15:00,
2013-02-22 17:20:00,35.1,23.8,30.24,WSW,239,4.0,11.0,63,0.00,,,0.01,Wunderground v.1.15,2013-02-22 22:20:00,
2013-02-22 17:25:00,34.9,23.9,30.24,SW,222,4.0,11.0,64,0.00,,,0.01,Wunderground v.1.15,2013-02-22 22:25:00,
2013-02-22 17:30:00,34.7,23.8,30.24,WSW,252,4.0,9.0,64,0.00,,,0.01,Wunderground v.1.15,2013-02-22 22:30:00,
2013-02-22 17:35:00,34.6,24.0,30.24,WSW,257,5.0,9.0,65,0.00,,,0.01,Wunderground v.1.15,2013-02-22 22:35:00,
2013-02-22 17:40:00,34.6,23.7,30.24,South,188,5.0,5.0,64,0.00,,,0.01,Wunderground v.1.15,2013-02-22 22:40:00,
2013-02-22 17:45:00,34.6,23.7,30.24,WSW,239,5.0,6.0,64,0.00,,,0.01,Wunderground v.1.15,2013-02-22 22:45:00,
2013-02-22 17:50:00,34.7,23.8,30.23,South,189,4.0,4.0,64,0.00,,,0.01,Wunderground v.1.15,2013-02-22 22:50:00,
2013-02-22 17:55:00,34.7,23.8,30.23,SW,233,5.0,8.0,64,0.00,,,0.01,Wunderground v.1.15,2013-02-22 22:55:00,
2013-02-22 18:00:00,34.6,24.0,30.22,SSE,150,5.0,9.0,65,0.00,,,0.01,Wunderground v.1.15,2013-02-22 23:00:00,
2013-02-22 18:05:00,34.6,24.0,30.22,SSE,155,4.0,9.0,65,0.00,,,0.01,Wunderground v.1.15,2013-02-22 23:05:00,
2013-02-22 18:10:00,34.6,24.0,30.22,South,189,5.0,5.0,65,0.00,,,0.01,Wunderground v.1.15,2013-02-22 23:10:00,
2013-02-22 18:15:00,34.6,24.4,30.23,WSW,238,5.0,12.0,66,0.00,,,0.01,Wunderground v.1.15,2013-02-22 23:15:00,
2013-02-22 18:20:00,34.6,24.0,30.23,SSW,210,5.0,9.0,65,0.00,,,0.01,Wunderground v.1.15,2013-02-22 23:20:00,
2013-02-22 18:25:00,34.6,24.0,30.23,SSW,198,5.0,9.0,65,0.00,,,0.01,Wunderground v.1.15,2013-02-22 23:25:00,
2013-02-22 18:30:00,34.6,24.0,30.23,WSW,239,4.0,10.0,65,0.00,,,0.01,Wunderground v.1.15,2013-02-22 23:30:00,
2013-02-22 18:40:00,34.8,23.9,30.22,SSW,200,5.0,9.0,64,0.00,,,0.01,Wunderground v.1.15,2013-02-22 23:40:00,
2013-02-22 18:45:00,34.8,23.9,30.22,WSW,255,5.0,9.0,64,0.00,,,0.01,Wunderground v.1.15,2013-02-22 23:45:00,
2013-02-22 18:50:00,34.8,23.9,30.22,SSE,166,6.0,9.0,64,0.00,,,0.01,Wunderground v.1.15,2013-02-22 23:50:00,
2013-02-22 18:55:00,34.8,23.9,30.22,SW,217,6.0,14.0,64,0.00,,,0.01,Wunderground v.1.15,2013-02-22 23:55:00,
2013-02-22 19:00:00,34.7,23.8,30.22,SSW,198,5.0,5.0,64,0.00,,,0.01,Wunderground v.1.15,2013-02-23 00:00:00,
2013-02-22 19:05:00,34.7,23.8,30.22,SSW,203,6.0,6.0,64,0.00,,,0.01,Wunderground v.1.15,2013-02-23 00:05:00,
2013-02-22 19:10:00,34.6,24.0,30.22,South,179,5.0,5.0,65,0.00,,,0.01,Wunderground v.1.15,2013-02-23 00:10:00,
2013-02-22 19:15:00,34.5,23.6,30.22,WSW,240,5.0,9.0,64,0.00,,,0.01,Wunderground v.1.15,2013-02-23 00:15:00,
2013-02-22 19:20:00,34.5,23.6,30.22,SW,224,7.0,9.0,64,0.00,,,0.01,Wunderground v.1.15,2013-02-23 00:20:00,
2013-02-22 19:25:00,34.4,23.5,30.22,South,170,6.0,9.0,64,0.00,,,0.01,Wunderground v.1.15,2013-02-23 00:25:00,
2013-02-22 19:30:00,34.4,23.8,30.22,South,174,6.0,9.0,65,0.00,,,0.01,Wunderground v.1.15,2013-02-23 00:30:00,
2013-02-22 19:35:00,34.3,23.7,30.22,South,191,6.0,9.0,65,0.00,,,0.01,Wunderground v.1.15,2013-02-23 00:35:00,
2013-02-22 19:40:00,34.3,23.7,30.22,SSW,198,7.0,9.0,65,0.00,,,0.01,Wunderground v.1.15,2013-02-23 00:40:00,
2013-02-22 19:45:00,34.2,23.7,30.22,South,187,7.0,9.0,65,0.00,,,0.01,Wunderground v.1.15,2013-02-23 00:45:00,
2013-02-22 19:50:00,34.1,23.9,30.22,SW,215,6.0,6.0,66,0.00,,,0.01,Wunderground v.1.15,2013-02-23 00:50:00,
2013-02-22 19:55:00,34.1,23.6,30.22,WSW,242,6.0,9.0,65,0.00,,,0.01,Wunderground v.1.15,2013-02-23 00:55:00,
2013-02-22 20:00:00,34.0,23.5,30.22,SSW,194,7.0,7.0,65,0.00,,,0.01,Wunderground v.1.15,2013-02-23 01:00:00,
2013-02-22 20:05:00,33.9,23.7,30.22,West,271,7.0,9.0,66,0.00,,,0.01,Wunderground v.1.15,2013-02-23 01:05:00,
2013-02-22 20:10:00,33.9,23.7,30.22,SW,228,5.0,5.0,66,0.00,,,0.01,Wunderground v.1.15,2013-02-23 01:10:00,
2013-02-22 20:15:00,33.7,23.9,30.22,SSW,212,4.0,9.0,67,0.00,,,0.01,Wunderground v.1.15,2013-02-23 01:15:00,
2013-02-22 20:20:00,33.6,23.8,30.22,SSW,198,6.0,9.0,67,0.00,,,0.01,Wunderground v.1.15,2013-02-23 01:20:00,
2013-02-22 20:25:00,33.6,23.8,30.22,SW,219,7.0,9.0,67,0.00,,,0.01,Wunderground v.1.15,2013-02-23 01:25:00,
2013-02-22 20:30:00,33.6,24.2,30.22,SSW,203,6.0,6.0,68,0.00,,,0.01,Wunderground v.1.15,2013-02-23 01:30:00,
2013-02-22 20:35:00,33.5,23.7,30.22,SE,139,5.0,9.0,67,0.00,,,0.01,Wunderground v.1.15,2013-02-23 01:35:00,
2013-02-22 20:40:00,33.5,24.1,30.22,SSW,210,5.0,9.0,68,0.00,,,0.01,Wunderground v.1.15,2013-02-23 01:40:00,
2013-02-22 20:45:00,33.4,24.0,30.22,SSW,194,6.0,9.0,68,0.00,,,0.01,Wunderground v.1.15,2013-02-23 01:45:00,
2013-02-22 20:50:00,33.4,24.0,30.22,SW,218,6.0,6.0,68,0.00,,,0.01,Wunderground v.1.15,2013-02-23 01:50:00,
2013-02-22 20:55:00,33.5,24.1,30.22,SSW,212,6.0,10.0,68,0.00,,,0.01,Wunderground v.1.15,2013-02-23 01:55:00,
2013-02-22 21:00:00,33.5,24.1,30.22,SSW,208,7.0,9.0,68,0.00,,,0.01,Wunderground v.1.15,2013-02-23 02:00:00,
2013-02-22 21:05:00,33.5,24.1,30.22,South,186,7.0,12.0,68,0.00,,,0.01,Wunderground v.1.15,2013-02-23 02:05:00,
2013-02-22 21:10:00,33.5,24.1,30.22,SSW,201,7.0,13.0,68,0.00,,,0.01,Wunderground v.1.15,2013-02-23 02:10:00,
2013-02-22 21:15:00,33.5,24.1,30.22,SW,225,7.0,13.0,68,0.00,,,0.01,Wunderground v.1.15,2013-02-23 02:15:00,
2013-02-22 21:20:00,33.5,24.1,30.22,WSW,245,7.0,12.0,68,0.00,,,0.01,Wunderground v.1.15,2013-02-23 02:20:00,
2013-02-22 21:25:00,33.5,24.1,30.22,WSW,239,6.0,12.0,68,0.00,,,0.01,Wunderground v.1.15,2013-02-23 02:25:00,
2013-02-22 21:30:00,33.4,24.0,30.23,SE,141,6.0,6.0,68,0.00,,,0.01,Wunderground v.1.15,2013-02-23 02:30:00,
2013-02-22 21:35:00,33.4,24.3,30.22,SSW,204,6.0,9.0,69,0.00,,,0.01,Wunderground v.1.15,2013-02-23 02:35:00,
2013-02-22 21:40:00,33.4,24.3,30.22,SW,227,6.0,11.0,69,0.00,,,0.01,Wunderground v.1.15,2013-02-23 02:40:00,
2013-02-22 21:45:00,33.3,24.2,30.22,SSE,160,7.0,11.0,69,0.00,,,0.01,Wunderground v.1.15,2013-02-23 02:45:00,
2013-02-22 21:50:00,33.4,24.3,30.22,SSW,213,8.0,8.0,69,0.00,,,0.01,Wunderground v.1.15,2013-02-23 02:50:00,
2013-02-22 21:55:00,33.3,24.2,30.22,SW,219,7.0,10.0,69,0.00,,,0.01,Wunderground v.1.15,2013-02-23 02:55:00,
2013-02-22 22:00:00,33.4,24.3,30.22,SSW,207,8.0,8.0,69,0.00,,,0.01,Wunderground v.1.15,2013-02-23 03:00:00,
2013-02-22 22:05:00,33.4,24.3,30.22,South,190,8.0,9.0,69,0.00,,,0.01,Wunderground v.1.15,2013-02-23 03:05:00,
2013-02-22 22:10:00,33.3,24.2,30.22,SSW,208,8.0,8.0,69,0.00,,,0.01,Wunderground v.1.15,2013-02-23 03:10:00,
2013-02-22 22:15:00,33.3,24.2,30.22,SW,226,8.0,10.0,69,0.00,,,0.01,Wunderground v.1.15,2013-02-23 03:15:00,
2013-02-22 22:20:00,33.4,24.3,30.21,SW,225,10.0,17.0,69,0.00,,,0.01,Wunderground v.1.15,2013-02-23 03:20:00,
2013-02-22 22:25:00,33.3,24.6,30.21,SW,231,8.0,17.0,70,0.00,,,0.01,Wunderground v.1.15,2013-02-23 03:25:00,
2013-02-22 22:30:00,33.2,24.5,30.22,SW,214,7.0,9.0,70,0.00,,,0.01,Wunderground v.1.15,2013-02-23 03:30:00,
2013-02-22 22:35:00,33.2,24.5,30.21,SSW,205,8.0,10.0,70,0.00,,,0.01,Wunderground v.1.15,2013-02-23 03:35:00,
2013-02-22 22:40:00,33.1,24.4,30.21,SSW,201,8.0,8.0,70,0.00,,,0.01,Wunderground v.1.15,2013-02-23 03:40:00,
2013-02-22 22:45:00,33.0,24.3,30.21,SSW,206,8.0,15.0,70,0.00,,,0.01,Wunderground v.1.15,2013-02-23 03:45:00,
2013-02-22 22:50:00,33.0,24.3,30.20,South,187,8.0,9.0,70,0.00,,,0.01,Wunderground v.1.15,2013-02-23 03:50:00,
2013-02-22 22:55:00,32.8,24.4,30.20,South,184,7.0,9.0,71,0.00,,,0.01,Wunderground v.1.15,2013-02-23 03:55:00,
2013-02-22 23:00:00,32.7,24.3,30.20,SSW,204,6.0,9.0,71,0.00,,,0.01,Wunderground v.1.15,2013-02-23 04:00:00,
2013-02-22 23:05:00,32.6,24.2,30.19,SSW,210,8.0,9.0,71,0.00,,,0.01,Wunderground v.1.15,2013-02-23 04:05:00,
2013-02-22 23:10:00,32.5,24.1,30.19,SSW,194,8.0,9.0,71,0.00,,,0.01,Wunderground v.1.15,2013-02-23 04:10:00,
2013-02-22 23:15:00,32.4,24.4,30.19,SSW,210,7.0,9.0,72,0.00,,,0.01,Wunderground v.1.15,2013-02-23 04:15:00,
2013-02-22 23:20:00,32.3,24.6,30.19,SW,228,8.0,12.0,73,0.00,,,0.01,Wunderground v.1.15,2013-02-23 04:20:00,
2013-02-22 23:25:00,32.2,24.5,30.18,WSW,253,7.0,12.0,73,0.00,,,0.01,Wunderground v.1.15,2013-02-23 04:25:00,
2013-02-22 23:30:00,32.1,24.4,30.18,SW,215,6.0,6.0,73,0.00,,,0.01,Wunderground v.1.15,2013-02-23 04:30:00,
2013-02-22 23:35:00,31.8,24.5,30.19,SSW,198,5.0,8.0,74,0.00,,,0.01,Wunderground v.1.15,2013-02-23 04:35:00,
2013-02-22 23:40:00,31.7,24.4,30.18,South,174,5.0,5.0,74,0.00,,,0.01,Wunderground v.1.15,2013-02-23 04:40:00,
2013-02-22 23:45:00,31.6,24.6,30.18,WSW,245,5.0,9.0,75,0.00,,,0.01,Wunderground v.1.15,2013-02-23 04:45:00,
2013-02-22 23:55:00,31.4,24.7,30.17,SSW,211,5.0,9.0,76,0.00,,,0.01,Wunderground v.1.15,2013-02-23 04:55:00,